Previsão horária em Barreiros

Hoje, 27 Outubro, Terça-feira

Tempo Temperatura Precipitação Vento Pressão Humidade
00:00 +26°C° 0 mm 4 m/s 756 mmHg 85%
01:00 +26°C° 0 mm 4 m/s 756 mmHg 86%
02:00 +26°C° 0 mm 4 m/s 756 mmHg 87%
03:00 +26°C° 0 mm 3 m/s 755 mmHg 88%
04:00 +26°C° 0 mm 3 m/s 756 mmHg 88%
05:00 +26°C° 0.1 mm 3 m/s 756 mmHg 86%
06:00 +26°C° 0.1 mm 4 m/s 756 mmHg 85%
07:00 +27°C° 0.1 mm 4 m/s 757 mmHg 83%
08:00 +28°C° 0 mm 4 m/s 757 mmHg 77%
09:00 +29°C° 0 mm 5 m/s 757 mmHg 70%
10:00 +32°C° 0 mm 5 m/s 757 mmHg 63%
11:00 +32°C° 0 mm 6 m/s 757 mmHg 62%
12:00 +32°C° 0 mm 6 m/s 756 mmHg 62%
13:00 +32°C° 0 mm 6 m/s 756 mmHg 61%
14:00 +32°C° 0 mm 6 m/s 755 mmHg 63%
15:00 +30°C° 0 mm 6 m/s 755 mmHg 64%
16:00 +30°C° 0 mm 6 m/s 754 mmHg 66%
17:00 +29°C° 0 mm 6 m/s 754 mmHg 69%
18:00 +28°C° 0 mm 6 m/s 755 mmHg 71%
19:00 +27°C° 0 mm 5 m/s 755 mmHg 74%
20:00 +27°C° 0 mm 5 m/s 756 mmHg 76%
21:00 +27°C° 0 mm 5 m/s 756 mmHg 77%
22:00 +27°C° 0 mm 5 m/s 757 mmHg 79%
23:00 +26°C° 0 mm 5 m/s 756 mmHg 80%

Amanhã, 28 Outubro, Quarta-feira

Tempo Temperatura Precipitação Vento Pressão Humidade
00:00 +26°C° 0 mm 4 m/s 756 mmHg 81%
01:00 +26°C° 0 mm 4 m/s 756 mmHg 82%
02:00 +26°C° 0 mm 4 m/s 755 mmHg 84%
03:00 +26°C° 0 mm 4 m/s 755 mmHg 85%
04:00 +25°C° 0 mm 4 m/s 755 mmHg 86%
05:00 +26°C° 0 mm 4 m/s 756 mmHg 85%
06:00 +26°C° 0 mm 4 m/s 756 mmHg 84%
07:00 +26°C° 0 mm 4 m/s 757 mmHg 82%
08:00 +27°C° 0 mm 4 m/s 757 mmHg 76%
09:00 +29°C° 0 mm 5 m/s 757 mmHg 69%
10:00 +30°C° 0 mm 5 m/s 757 mmHg 62%
11:00 +30°C° 0 mm 5 m/s 757 mmHg 61%
12:00 +32°C° 0 mm 5 m/s 757 mmHg 59%
13:00 +33°C° 0 mm 6 m/s 756 mmHg 57%
14:00 +32°C° 0 mm 6 m/s 756 mmHg 59%
15:00 +32°C° 0 mm 5 m/s 755 mmHg 61%
16:00 +30°C° 0 mm 5 m/s 755 mmHg 63%
17:00 +29°C° 0 mm 5 m/s 755 mmHg 69%
18:00 +28°C° 0 mm 5 m/s 755 mmHg 75%
19:00 +27°C° 0 mm 5 m/s 756 mmHg 81%
20:00 +27°C° 0 mm 4 m/s 756 mmHg 81%
21:00 +27°C° 0 mm 4 m/s 757 mmHg 82%
22:00 +26°C° 0 mm 4 m/s 757 mmHg 82%
23:00 +26°C° 0.1 mm 4 m/s 757 mmHg 82%

Depois de amanhã, 29 Outubro, Quinta-feira

Tempo Temperatura Precipitação Vento Pressão Humidade
00:00 +26°C° 0.1 mm 4 m/s 757 mmHg 82%
01:00 +26°C° 0.1 mm 4 m/s 756 mmHg 83%
02:00 +26°C° 0 mm 3 m/s 756 mmHg 83%
03:00 +26°C° 0 mm 3 m/s 756 mmHg 83%
04:00 +25°C° 0 mm 3 m/s 756 mmHg 84%
05:00 +26°C° 0 mm 3 m/s 756 mmHg 82%
06:00 +26°C° 0 mm 4 m/s 757 mmHg 80%
07:00 +27°C° 0 mm 4 m/s 757 mmHg 79%
08:00 +28°C° 0 mm 4 m/s 757 mmHg 73%
09:00 +29°C° 0 mm 4 m/s 758 mmHg 68%
10:00 +30°C° 0 mm 4 m/s 758 mmHg 62%
11:00 +30°C° 0.1 mm 5 m/s 758 mmHg 62%
12:00 +32°C° 0.1 mm 5 m/s 757 mmHg 61%
13:00 +32°C° 0.1 mm 5 m/s 757 mmHg 61%
14:00 +32°C° 0.1 mm 5 m/s 757 mmHg 62%
15:00 +32°C° 0.1 mm 5 m/s 756 mmHg 63%
16:00 +30°C° 0.1 mm 5 m/s 756 mmHg 65%
17:00 +29°C° 0 mm 5 m/s 756 mmHg 70%
18:00 +28°C° 0 mm 4 m/s 757 mmHg 74%
19:00 +27°C° 0 mm 3 m/s 757 mmHg 79%
20:00 +27°C° 0.1 mm 3 m/s 757 mmHg 82%
21:00 +26°C° 0.1 mm 3 m/s 758 mmHg 84%
22:00 +26°C° 0.1 mm 3 m/s 758 mmHg 87%
23:00 +26°C° 0.1 mm 3 m/s 757 mmHg 87%

30 Outubro, Sexta-feira

Tempo Temperatura Precipitação Vento Pressão Humidade
00:00 +26°C° 0.1 mm 3 m/s 757 mmHg 88%
01:00 +25°C° 0.1 mm 3 m/s 757 mmHg 89%
02:00 +25°C° 0 mm 3 m/s 756 mmHg 89%
03:00 +25°C° 0 mm 3 m/s 756 mmHg 89%
04:00 +25°C° 0 mm 3 m/s 756 mmHg 89%
05:00 +26°C° 0.1 mm 3 m/s 757 mmHg 88%
06:00 +26°C° 0.1 mm 4 m/s 757 mmHg 86%
07:00 +27°C° 0.1 mm 4 m/s 757 mmHg 85%
08:00 +28°C° 0.1 mm 4 m/s 758 mmHg 78%
09:00 +29°C° 0.1 mm 5 m/s 758 mmHg 71%
10:00 +30°C° 0.1 mm 5 m/s 758 mmHg 65%
11:00 +32°C° 0 mm 5 m/s 758 mmHg 62%
12:00 +32°C° 0 mm 5 m/s 757 mmHg 59%
13:00 +33°C° 0 mm 5 m/s 757 mmHg 57%
14:00 +32°C° 0.1 mm 5 m/s 757 mmHg 60%
15:00 +32°C° 0.1 mm 5 m/s 757 mmHg 63%
16:00 +30°C° 0.1 mm 5 m/s 756 mmHg 65%
17:00 +29°C° 0 mm 4 m/s 757 mmHg 70%
18:00 +28°C° 0 mm 3 m/s 757 mmHg 75%
19:00 +27°C° 0 mm 3 m/s 757 mmHg 80%
20:00 +27°C° 0 mm 3 m/s 757 mmHg 82%
21:00 +26°C° 0 mm 3 m/s 757 mmHg 84%
22:00 +26°C° 0 mm 3 m/s 758 mmHg 86%
23:00 +26°C° 0 mm 3 m/s 757 mmHg 87%

31 Outubro, Sábado

Tempo Temperatura Precipitação Vento Pressão Humidade
00:00 +26°C° 0 mm 3 m/s 757 mmHg 88%
01:00 +25°C° 0 mm 3 m/s 757 mmHg 89%
02:00 +26°C° 0.2 mm 3 m/s 757 mmHg 90%
03:00 +26°C° 0.2 mm 3 m/s 756 mmHg 90%
04:00 +26°C° 0.2 mm 3 m/s 756 mmHg 90%
05:00 +26°C° 0.1 mm 3 m/s 756 mmHg 89%
06:00 +26°C° 0.1 mm 3 m/s 757 mmHg 87%
07:00 +27°C° 0.1 mm 3 m/s 757 mmHg 86%
08:00 +28°C° 0.1 mm 4 m/s 757 mmHg 80%
09:00 +29°C° 0.1 mm 4 m/s 757 mmHg 75%
10:00 +30°C° 0.1 mm 5 m/s 758 mmHg 70%
11:00 +32°C° 0 mm 5 m/s 757 mmHg 66%
12:00 +32°C° 0 mm 5 m/s 757 mmHg 62%
13:00 +33°C° 0 mm 5 m/s 757 mmHg 59%
14:00 +33°C° 0 mm 5 m/s 756 mmHg 62%
15:00 +32°C° 0 mm 5 m/s 756 mmHg 65%
16:00 +30°C° 0 mm 5 m/s 755 mmHg 68%
17:00 +29°C° 0 mm 5 m/s 756 mmHg 73%
18:00 +28°C° 0 mm 4 m/s 756 mmHg 77%
19:00 +27°C° 0 mm 4 m/s 756 mmHg 82%
20:00 +27°C° 0 mm 4 m/s 757 mmHg 83%
21:00 +27°C° 0 mm 4 m/s 757 mmHg 84%
22:00 +27°C° 0 mm 4 m/s 757 mmHg 85%
23:00 +26°C° 0 mm 3 m/s 757 mmHg 86%

1 Novembro, Domingo

Tempo Temperatura Precipitação Vento Pressão Humidade
00:00 +26°C° 0 mm 3 m/s 757 mmHg 87%
01:00 +26°C° 0 mm 3 m/s 756 mmHg 88%
02:00 +26°C° 0.1 mm 3 m/s 756 mmHg 89%
03:00 +26°C° 0.1 mm 3 m/s 756 mmHg 89%
04:00 +26°C° 0.1 mm 3 m/s 756 mmHg 90%
05:00 +26°C° 0.1 mm 3 m/s 756 mmHg 87%
06:00 +27°C° 0.1 mm 3 m/s 756 mmHg 84%
07:00 +27°C° 0.1 mm 3 m/s 757 mmHg 82%
08:00 +28°C° 0 mm 4 m/s 757 mmHg 75%
09:00 +30°C° 0 mm 4 m/s 757 mmHg 68%
10:00 +32°C° 0 mm 4 m/s 757 mmHg 62%
11:00 +32°C° 0 mm 5 m/s 757 mmHg 61%
12:00 +32°C° 0 mm 5 m/s 756 mmHg 60%
13:00 +33°C° 0 mm 5 m/s 756 mmHg 59%
14:00 +32°C° 0 mm 5 m/s 755 mmHg 61%
15:00 +32°C° 0 mm 5 m/s 755 mmHg 63%
16:00 +32°C° 0 mm 5 m/s 755 mmHg 64%
17:00 +30°C° 0 mm 5 m/s 755 mmHg 70%
18:00 +28°C° 0 mm 4 m/s 755 mmHg 76%
19:00 +27°C° 0 mm 4 m/s 755 mmHg 82%
20:00 +27°C° 0 mm 4 m/s 756 mmHg 83%
21:00 +27°C° 0 mm 4 m/s 756 mmHg 83%
22:00 +27°C° 0 mm 4 m/s 756 mmHg 84%
23:00 +26°C° 0 mm 4 m/s 756 mmHg 85%
Mostrar mais